Weather History for Greybull, WY

Change the Weather History Date:

Monday, March 4, 2013

  Actual Average Record
Temperature  
Mean Temperature 26 °F 32 °F  
Max Temperature 34 °F 45 °F 67 °F (2000)
Min Temperature 18 °F 19 °F 11 °F (2003)
Degree Days  
Heating Degree Days 39 33  
Month to date heating degree days 129 135  
Since 1 July heating degree days 6003 6106  
Cooling Degree Days 0 0  
Month to date cooling degree days 0 0  
Year to date cooling degree days 0 0  
Moisture  
Dew Point 11 °F    
Average Humidity 56    
Maximum Humidity 73    
Minimum Humidity 38    
Precipitation  
Precipitation 0.00 in 0.01 in 0.07 in (1980)
Month to date precipitation T 0.03  
Year to date precipitation 0.42 0.44  
Sea Level Pressure  
Sea Level Pressure 30.20 in    
Wind  
Wind Speed 19 mph (NNW)    
Max Wind Speed 31 mph    
Max Gust Speed 46 mph    
Visibility 10 miles    
Events      
T = Trace of Precipitation, MM = Missing Value Source: NWS Daily Summary

Daily Weather History Graph

Daily Weather History Graph

Search for Another Location

Airport:

Trip Planner

Search our weather history database for the weather conditions in past years. The results will help you decide how hot, cold, wet, or windy it might be!

Date:

Astronomy

Mar. 04, 2013 Rise Set
Actual Time 6:43 AM MST 6:04 PM MST
Civil Twilight 6:14 AM MST 6:33 PM MST
Nautical Twilight 5:41 AM MST 7:07 PM MST
Astronomical Twilight 5:07 AM MST 7:41 PM MST
Moon 1:06 AM MST (3/4) 10:38 AM MST (3/4)
Length of Visible Light 12h 18m
Length of Day
11h 20m
Waning Gibbous, 51% of the Moon is Illuminated
Mar 4
Waning Gibbous
Mar 4
Last Quarter
Mar 11
New
Mar 19
First Quarter
Mar 27
Full

Hourly Weather History & Observations

Time (MST) Temp. Windchill Dew Point Humidity Pressure Visibility Wind Dir Wind Speed Gust Speed Precip Events Conditions
12:53 AM 32.0 °F 26.4 °F 15.1 °F 50% 29.89 in 10.0 mi NW 5.8 mph - N/A   Partly Cloudy
1:53 AM 30.0 °F 16.3 °F 12.9 °F 49% 29.91 in 10.0 mi NNW 24.2 mph 32.2 mph N/A   Clear
2:53 AM 28.0 °F 13.0 °F 10.9 °F 49% 29.93 in 10.0 mi NW 26.5 mph 33.4 mph N/A   Mostly Cloudy
3:53 AM 27.0 °F 13.2 °F 10.9 °F 51% 29.94 in 10.0 mi NW 20.7 mph 29.9 mph N/A   Overcast
4:53 AM 27.0 °F 11.9 °F 8.1 °F 45% 29.98 in 10.0 mi NW 25.3 mph 41.4 mph N/A   Mostly Cloudy
5:53 AM 27.0 °F 11.0 °F 8.1 °F 45% 30.02 in 10.0 mi North 28.8 mph 39.1 mph N/A   Overcast
6:53 AM 24.1 °F 8.3 °F 10.0 °F 55% 30.09 in 10.0 mi NNW 24.2 mph 32.2 mph N/A   Scattered Clouds
7:53 AM 24.1 °F 6.6 °F 10.9 °F 57% 30.14 in 10.0 mi NW 31.1 mph 38.0 mph N/A   Partly Cloudy
8:53 AM 25.0 °F 8.9 °F 12.0 °F 58% 30.17 in 10.0 mi NW 26.5 mph 32.2 mph N/A   Partly Cloudy
9:53 AM 24.1 °F 9.0 °F 10.9 °F 57% 30.19 in 10.0 mi NNW 21.9 mph 28.8 mph N/A   Mostly Cloudy
10:53 AM 25.0 °F 9.9 °F 12.0 °F 58% 30.22 in 10.0 mi North 23.0 mph 31.1 mph N/A   Overcast
11:53 AM 26.1 °F 9.8 °F 12.0 °F 55% 30.25 in 10.0 mi NW 28.8 mph 41.4 mph N/A   Overcast
12:53 PM 27.0 °F 13.5 °F 12.9 °F 56% 30.25 in 10.0 mi North 19.6 mph 32.2 mph N/A   Overcast
1:53 PM 28.0 °F 14.9 °F 12.9 °F 53% 30.26 in 10.0 mi North 19.6 mph 27.6 mph N/A   Partly Cloudy
2:53 PM 28.0 °F 14.3 °F 12.0 °F 51% 30.28 in 10.0 mi North 21.9 mph 31.1 mph N/A   Clear
3:53 PM 28.0 °F 14.6 °F 10.9 °F 49% 30.32 in 10.0 mi North 20.7 mph 27.6 mph N/A   Clear
4:53 PM 28.0 °F 14.3 °F 10.9 °F 49% 30.33 in 10.0 mi NNW 21.9 mph 27.6 mph N/A   Clear
5:53 PM 26.1 °F 15.6 °F 7.0 °F 44% 30.35 in 10.0 mi WNW 11.5 mph 23.0 mph N/A   Clear
6:53 PM 26.1 °F 16.8 °F 8.1 °F 47% 30.38 in 10.0 mi NNW 9.2 mph - N/A   Clear
7:53 PM 21.9 °F 12.5 °F 12.0 °F 66% 30.39 in 10.0 mi WSW 8.1 mph - N/A   Clear
8:53 PM 21.0 °F - 12.0 °F 68% 30.41 in 10.0 mi Calm Calm - N/A   Clear
9:53 PM 21.0 °F 11.4 °F 12.0 °F 68% 30.42 in 10.0 mi NW 8.1 mph - N/A   Clear
10:53 PM 19.9 °F 14.9 °F 12.0 °F 71% 30.43 in 10.0 mi SSE 3.5 mph - N/A   Clear